Regional Weather Roundup
Issued by NWS Mt. Holly, NJ

Home | Current Version | Previous Version | Text Only | Print | Product List | Glossary On
Versions: 1 2 3 4 5 6 7 8 9 10 11 12 13 14 15 16 17 18 19 20 21 22 23 24 25 26 27
000
ASUS41 KPHI 311710
RWRPHI

REGIONAL WEATHER ROUNDUP
NATIONAL WEATHER SERVICE MOUNT HOLLY NJ
100 PM EDT FRI OCT 31 2014

NOTE:  "FAIR" INDICATES FEW OR NO CLOUDS BELOW 12,000 FEET WITH NO
SIGNIFICANT WEATHER AND/OR OBSTRUCTIONS TO VISIBILITY.

 * = STATION DOES NOT REPORT PRECIPITATION (E.G. RAIN, SNOW, ETC.)
        OR FOG.

NJZ015>026-311800-
SOUTHERN NEW JERSEY

CITY           SKY/WX    TMP DP  RH WIND       PRES   REMARKS
POMONA         CLOUDY    55  43  63 N8        29.91F
RIO GRANDE*    CLOUDY    54  39  58 N7        29.91F
MILLVILLE      CLOUDY    51  39  63 N9        29.92F
WRIGHTSTOWN    CLOUDY    50  39  66 N8        29.92F
MOUNT HOLLY    CLOUDY    51  37  58 N7        29.94F
TRENTON        CLOUDY    49  35  58 N7        29.95F

$$
NJZ001>014-311800-
NORTHERN NEW JERSEY

CITY           SKY/WX    TMP DP  RH WIND       PRES   REMARKS
SUSSEX         CLOUDY    49  34  56 NE9       29.96F
ANDOVER*         N/A     48  35  60 VRB5      29.95F
MORRISTOWN     CLOUDY    50  37  62 NE6       29.96F
NEWARK         CLOUDY    52  37  56 N8        29.96F
TETERBORO      CLOUDY    52  35  52 CALM      29.95F
SOMERVILLE     CLOUDY    51  34  52 CALM      29.94F
ALLAIRE*       CLOUDY    50  36  57 NE7       29.93F
TOMS RIVER*    CLOUDY    54  41  62 N7        29.93F

$$
PAZ043-044-047-054-055-060>062-066>071-311800-
EASTERN PENNSYLVANIA

CITY           SKY/WX    TMP DP  RH WIND       PRES   REMARKS
PHILADELPHIA   CLOUDY    51  36  56 N9        29.95F
NORTH PHILA    CLOUDY    52  35  52 N7        29.97F
BLUE BELL      CLOUDY    50  36  57 CALM      29.94F
DOYLESTOWN     CLOUDY    49  37  63 VRB5      29.94F
QUAKERTOWN*    PTSUNNY   48  37  66 N6        29.95F
POTTSTOWN      PTSUNNY   51  36  56 VRB3      29.95F
LANCASTER        N/A     53  33  46 MISG      29.94F
COATESVILLE    MOSUNNY   50  36  57 NE5       29.94F
READING        SUNNY     53  33  46 VRB7      29.94F
ALLENTOWN      MOSUNNY   51  34  52 E6        29.96F
MOUNT POCONO   MOSUNNY   45  31  58 E8        29.92F
HAZLETON       SUNNY     48  32  53 NE7       29.94F
WILKES BARRE   SUNNY     52  30  43 N5        29.92F

$$
DEZALL-MDZ008-012-015-019-020-311800-
DELAWARE AND EASTERN MARYLAND

CITY           SKY/WX    TMP DP  RH WIND       PRES   REMARKS
WILMINGTON     PTSUNNY   53  38  56 N6        29.95F
DOVER          CLOUDY    52  43  70 N12       29.91F
GEORGETOWN     CLOUDY    55  39  54 N8        29.92F
EASTON         MOSUNNY   57  36  44 NE9       29.96F
PATUXENT       MOSUNNY   56  37  49 N9        29.93F
OCEAN CITY     CLOUDY    56  38  50 N9        29.90F
WALLOPS ISLAND CLOUDY    54  39  57 N10       29.90F
CAMBRIDGE      PTSUNNY   55  32  41 N8        29.92F
SALISBURY      CLOUDY    57  38  48 N8        29.91F

$$
PAZ001-021-NYZ056-072-MDZ011-DCZ001-311800-
OTHER NEARBY LOCATIONS

CITY           SKY/WX    TMP DP  RH WIND       PRES   REMARKS
HARRISBURG     CLOUDY    50  35  56 CALM      29.94F
STATE COLLEGE  CLOUDY    45  36  70 VRB5      29.92F
WILLIAMSPORT   CLOUDY    50  34  54 CALM      29.94F
BINGHAMTON     CLOUDY    45  31  58 SE6       29.93F
NEW YORK CITY  CLOUDY    53  37  54 VRB5      29.97F
BALTIMORE      PTSUNNY   53  34  48 E7        29.93F
WASHINGTON DC  PTSUNNY   57  35  43 NE6       29.94F

$$



USA.gov is the U.S. government's official web portal to all federal, state and local government web resources and services.